When you browse on this site, cookies collect data to enhance your experience and personalize the content and advertising you see.
Visit our Privacy Policy to learn more. By continuing to use the site, you agree to this use of cookies and data.
  • En España
  • Lista de países
  • Para 7 días
  • Temperatura del agua
  • El tiempo en el mapa
  • Informadores
  • user-avatar
    Iniciar sesión

    Tiempo cada hora Bulawayo

    Hoy, 22 Octubre, Martes

    Tiempo Temperatura Precipitaciones Viento Presión Humedad
    00:00 +26°C° 0 mm 2 mps 646 mmHg 21%
    01:00 +25°C° 0 mm 2 mps 646 mmHg 22%
    02:00 +24°C° 0 mm 2 mps 646 mmHg 25%
    03:00 +24°C° 0 mm 2 mps 646 mmHg 27%
    04:00 +23°C° 0 mm 2 mps 646 mmHg 29%
    05:00 +21°C° 0 mm 3 mps 646 mmHg 31%
    06:00 +25°C° 0 mm 3 mps 648 mmHg 28%
    07:00 +27°C° 0 mm 4 mps 649 mmHg 26%
    08:00 +30°C° 0 mm 5 mps 650 mmHg 24%
    09:00 +32°C° 0 mm 5 mps 650 mmHg 25%
    10:00 +33°C° 0 mm 5 mps 650 mmHg 25%
    11:00 +35°C° 0 mm 5 mps 650 mmHg 26%
    12:00 +35°C° 0 mm 5 mps 650 mmHg 25%
    13:00 +36°C° 0 mm 6 mps 649 mmHg 25%
    14:00 +36°C° 0 mm 6 mps 648 mmHg 24%
    15:00 +34°C° 0 mm 6 mps 648 mmHg 29%
    16:00 +33°C° 0 mm 5 mps 647 mmHg 34%
    17:00 +30°C° 0 mm 5 mps 647 mmHg 39%
    18:00 +28°C° 0 mm 6 mps 647 mmHg 48%
    19:00 +24°C° 0 mm 6 mps 646 mmHg 57%
    20:00 +22°C° 0 mm 7 mps 646 mmHg 66%
    21:00 +21°C° 0 mm 7 mps 646 mmHg 69%
    22:00 +21°C° 0 mm 6 mps 647 mmHg 72%
    23:00 +20°C° 0 mm 6 mps 647 mmHg 74%

    Mañana, 23 Octubre, Miércoles

    Tiempo Temperatura Precipitaciones Viento Presión Humedad
    00:00 +20°C° 0 mm 5 mps 646 mmHg 73%
    01:00 +20°C° 0 mm 5 mps 646 mmHg 73%
    02:00 +20°C° 0 mm 4 mps 646 mmHg 72%
    03:00 +20°C° 0 mm 4 mps 646 mmHg 70%
    04:00 +20°C° 0 mm 4 mps 646 mmHg 69%
    05:00 +20°C° 0 mm 4 mps 646 mmHg 68%
    06:00 +23°C° 0 mm 5 mps 647 mmHg 56%
    07:00 +27°C° 0 mm 6 mps 648 mmHg 44%
    08:00 +30°C° 0 mm 7 mps 648 mmHg 32%
    09:00 +33°C° 0 mm 7 mps 649 mmHg 27%
    10:00 +36°C° 0 mm 6 mps 649 mmHg 22%
    11:00 +39°C° 0 mm 6 mps 649 mmHg 17%
    12:00 +39°C° 0 mm 5 mps 648 mmHg 16%
    13:00 +38°C° 0 mm 4 mps 648 mmHg 15%
    14:00 +39°C° 0 mm 3 mps 647 mmHg 14%
    15:00 +38°C° 0 mm 3 mps 647 mmHg 15%
    16:00 +37°C° 0 mm 4 mps 647 mmHg 16%
    17:00 +36°C° 0 mm 4 mps 646 mmHg 18%
    18:00 +34°C° 0 mm 3 mps 646 mmHg 20%
    19:00 +31°C° 0 mm 2 mps 646 mmHg 23%
    20:00 +29°C° 0 mm 2 mps 647 mmHg 26%
    21:00 +28°C° 0 mm 2 mps 647 mmHg 28%
    22:00 +28°C° 0 mm 3 mps 647 mmHg 31%
    23:00 +28°C° 0 mm 3 mps 647 mmHg 33%

    Pasado mañana, 24 Octubre, Jueves

    Tiempo Temperatura Precipitaciones Viento Presión Humedad
    00:00 +28°C° 0 mm 3 mps 647 mmHg 35%
    01:00 +27°C° 0 mm 3 mps 647 mmHg 36%
    02:00 +27°C° 0 mm 3 mps 647 mmHg 38%
    03:00 +27°C° 0 mm 3 mps 647 mmHg 36%
    04:00 +26°C° 0 mm 3 mps 647 mmHg 35%
    05:00 +26°C° 0 mm 3 mps 647 mmHg 33%
    06:00 +28°C° 0 mm 4 mps 648 mmHg 30%
    07:00 +32°C° 0 mm 5 mps 649 mmHg 27%
    08:00 +34°C° 0 mm 6 mps 650 mmHg 24%
    09:00 +35°C° 0 mm 5 mps 650 mmHg 21%
    10:00 +37°C° 0 mm 4 mps 650 mmHg 18%
    11:00 +39°C° 0 mm 3 mps 651 mmHg 15%
    12:00 +38°C° 0 mm 4 mps 650 mmHg 16%
    13:00 +38°C° 0 mm 4 mps 649 mmHg 16%
    14:00 +37°C° 0 mm 5 mps 648 mmHg 17%
    15:00 +37°C° 0 mm 4 mps 648 mmHg 18%
    16:00 +36°C° 0 mm 4 mps 648 mmHg 18%
    17:00 +36°C° 0 mm 4 mps 648 mmHg 19%
    18:00 +34°C° 0 mm 4 mps 647 mmHg 23%
    19:00 +30°C° 0 mm 4 mps 647 mmHg 28%
    20:00 +28°C° 0 mm 4 mps 647 mmHg 32%
    21:00 +29°C° 0 mm 4 mps 648 mmHg 30%
    22:00 +29°C° 0 mm 4 mps 648 mmHg 29%
    23:00 +30°C° 0 mm 4 mps 649 mmHg 27%

    25 Octubre, Viernes

    Tiempo Temperatura Precipitaciones Viento Presión Humedad
    00:00 +28°C° 0 mm 4 mps 648 mmHg 30%
    01:00 +27°C° 0 mm 4 mps 648 mmHg 32%
    02:00 +25°C° 0 mm 4 mps 647 mmHg 35%
    03:00 +25°C° 0 mm 3 mps 648 mmHg 35%
    04:00 +24°C° 0 mm 3 mps 648 mmHg 36%
    05:00 +22°C° 0 mm 3 mps 648 mmHg 36%
    06:00 +26°C° 0 mm 4 mps 649 mmHg 32%
    07:00 +29°C° 0 mm 5 mps 650 mmHg 28%
    08:00 +33°C° 0 mm 6 mps 651 mmHg 24%
    09:00 +35°C° 0 mm 5 mps 651 mmHg 21%
    10:00 +37°C° 0 mm 4 mps 651 mmHg 18%
    11:00 +40°C° 0 mm 4 mps 651 mmHg 15%
    12:00 +39°C° 0 mm 3 mps 650 mmHg 14%
    13:00 +39°C° 0 mm 3 mps 649 mmHg 13%
    14:00 +39°C° 0 mm 3 mps 648 mmHg 13%
    15:00 +39°C° 0 mm 3 mps 648 mmHg 13%
    16:00 +39°C° 0 mm 3 mps 648 mmHg 13%
    17:00 +39°C° 0 mm 3 mps 648 mmHg 12%
    18:00 +36°C° 0 mm 2 mps 648 mmHg 14%
    19:00 +34°C° 0 mm 2 mps 647 mmHg 16%
    20:00 +30°C° 0 mm 2 mps 647 mmHg 18%
    21:00 +29°C° 0 mm 2 mps 647 mmHg 20%
    22:00 +28°C° 0 mm 2 mps 647 mmHg 21%
    23:00 +27°C° 0 mm 2 mps 647 mmHg 22%

    26 Octubre, Sábado

    Tiempo Temperatura Precipitaciones Viento Presión Humedad
    00:00 +26°C° 0 mm 3 mps 647 mmHg 24%
    01:00 +26°C° 0 mm 3 mps 647 mmHg 25%
    02:00 +26°C° 0 mm 3 mps 647 mmHg 27%
    03:00 +25°C° 0 mm 3 mps 647 mmHg 29%
    04:00 +24°C° 0 mm 3 mps 647 mmHg 31%
    05:00 +22°C° 0 mm 3 mps 647 mmHg 33%
    06:00 +26°C° 0 mm 4 mps 648 mmHg 29%
    07:00 +29°C° 0 mm 5 mps 649 mmHg 25%
    08:00 +33°C° 0 mm 6 mps 650 mmHg 21%
    09:00 +35°C° 0 mm 5 mps 650 mmHg 18%
    10:00 +37°C° 0 mm 4 mps 650 mmHg 16%
    11:00 +39°C° 0 mm 3 mps 650 mmHg 14%
    12:00 +40°C° 0 mm 3 mps 650 mmHg 13%
    13:00 +41°C° 0 mm 2 mps 649 mmHg 11%
    14:00 +42°C° 0 mm 1 mps 649 mmHg 10%
    15:00 +41°C° 0 mm 1 mps 648 mmHg 10%
    16:00 +40°C° 0 mm 2 mps 648 mmHg 11%
    17:00 +39°C° 0 mm 2 mps 647 mmHg 12%
    18:00 +37°C° 0 mm 2 mps 647 mmHg 14%
    19:00 +35°C° 0 mm 2 mps 647 mmHg 16%
    20:00 +31°C° 0 mm 2 mps 647 mmHg 18%
    21:00 +31°C° 0 mm 2 mps 647 mmHg 19%
    22:00 +30°C° 0 mm 2 mps 647 mmHg 19%
    23:00 +29°C° 0 mm 2 mps 647 mmHg 20%

    27 Octubre, Domingo

    Tiempo Temperatura Precipitaciones Viento Presión Humedad
    00:00 +28°C° 0 mm 2 mps 646 mmHg 23%
    01:00 +27°C° 0 mm 2 mps 646 mmHg 25%
    02:00 +26°C° 0 mm 2 mps 645 mmHg 27%
    03:00 +25°C° 0 mm 2 mps 646 mmHg 29%
    04:00 +24°C° 0 mm 2 mps 646 mmHg 31%
    05:00 +24°C° 0 mm 2 mps 646 mmHg 32%
    06:00 +26°C° 0 mm 4 mps 647 mmHg 29%
    07:00 +29°C° 0 mm 5 mps 648 mmHg 26%
    08:00 +33°C° 0 mm 6 mps 649 mmHg 22%
    09:00 +35°C° 0 mm 6 mps 649 mmHg 19%
    10:00 +37°C° 0 mm 5 mps 649 mmHg 17%
    11:00 +40°C° 0 mm 4 mps 649 mmHg 14%
    12:00 +40°C° 0 mm 4 mps 648 mmHg 14%
    13:00 +39°C° 0 mm 3 mps 648 mmHg 14%
    14:00 +38°C° 0 mm 2 mps 647 mmHg 15%
    15:00 +38°C° 0 mm 2 mps 646 mmHg 15%
    16:00 +38°C° 0 mm 2 mps 646 mmHg 15%
    17:00 +37°C° 0 mm 2 mps 646 mmHg 16%
    18:00 +35°C° 0 mm 2 mps 646 mmHg 19%
    19:00 +32°C° 0 mm 1 mps 645 mmHg 23%
    20:00 +30°C° 0 mm 1 mps 645 mmHg 26%
    21:00 +29°C° 0 mm 2 mps 645 mmHg 26%
    22:00 +29°C° 0 mm 2 mps 646 mmHg 27%
    23:00 +29°C° 0 mm 2 mps 646 mmHg 27%

    28 Octubre, Lunes

    Tiempo Temperatura Precipitaciones Viento Presión Humedad
    00:00 +28°C° 0 mm 2 mps 645 mmHg 28%
    01:00 +28°C° 0 mm 1 mps 645 mmHg 29%
    02:00 +27°C° 0 mm 1 mps 644 mmHg 30%
    03:00 +26°C° 0 mm 1 mps 644 mmHg 31%
    04:00 +26°C° 0 mm 1 mps 644 mmHg 33%
    05:00 +25°C° 0 mm 2 mps 644 mmHg 34%
    06:00 +27°C° 0 mm 3 mps 645 mmHg 29%
    07:00 +30°C° 0 mm 4 mps 646 mmHg 24%
    08:00 +33°C° 0 mm 5 mps 647 mmHg 20%
    09:00 +36°C° 0 mm 4 mps 647 mmHg 17%
    10:00 +38°C° 0 mm 4 mps 648 mmHg 15%
    11:00 +41°C° 0 mm 4 mps 648 mmHg 13%
    12:00 +40°C° 0 mm 3 mps 647 mmHg 13%
    13:00 +40°C° 0 mm 3 mps 647 mmHg 12%
    14:00 +40°C° 0 mm 2 mps 646 mmHg 12%
    15:00 +40°C° 0 mm 2 mps 646 mmHg 12%
    16:00 +39°C° 0 mm 3 mps 645 mmHg 13%
    17:00 +39°C° 0 mm 3 mps 645 mmHg 13%
    18:00 +37°C° 0.1 mm 2 mps 645 mmHg 16%
    19:00 +34°C° 0.1 mm 2 mps 645 mmHg 18%
    20:00 +31°C° 0.1 mm 1 mps 645 mmHg 21%
    21:00 +31°C° 0 mm 1 mps 645 mmHg 22%
    22:00 +30°C° 0 mm 2 mps 645 mmHg 24%
    23:00 +30°C° 0 mm 2 mps 645 mmHg 26%
    Mostrar más